Location: Unspecified
(0.0000°N, 0.0000°E)
Time: 20:39:17
(UTC+00:00)

Meteor 3-4 Rocket - Visible Passes

Search period start: 26 February 2024 00:00
Search period end: 07 March 2024 00:00
Orbit: 1185 x 1212 km, 82.5° (Epoch: 25 February)

Date Brightness Start Highest point End Pass type
(mag) Time Alt. Az. Time Alt. Az. Time Alt. Az.
26 Feb 7.9 19:34:52 10° WSW 19:37:28 12° W 19:40:04 10° WNW visible
27 Feb 5.8 05:31:44 10° N 05:38:48 55° E 05:45:55 10° SSE visible
27 Feb 7.7 19:16:04 10° WSW 19:20:16 16° W 19:24:28 10° NW visible
28 Feb 6.2 05:14:47 10° NNE 05:21:36 44° E 05:28:28 10° SSE visible
28 Feb 7.6 18:57:53 10° SW 19:03:04 21° W 19:08:15 10° NW visible
29 Feb 6.6 04:57:56 10° NNE 05:04:25 35° E 05:10:55 10° SSE visible
29 Feb 7.4 18:40:00 10° SW 18:45:53 26° W 18:51:46 10° NNW visible
01 Mar 6.9 04:41:13 10° NNE 04:47:13 28° E 04:53:14 10° SE visible
02 Mar 7.2 04:24:39 10° NE 04:30:01 22° E 04:35:24 10° SE visible
03 Mar 7.5 04:08:21 10° NE 04:12:50 17° E 04:17:19 10° SE visible
04 Mar 7.7 03:52:30 10° ENE 03:55:38 13° E 03:58:46 10° ESE visible
04 Mar 5.0 05:38:26 10° NNW 05:45:32 57° W 05:52:43 10° S visible
05 Mar 4.9 05:21:06 10° N 05:28:20 71° W 05:35:40 10° S visible
06 Mar 4.9 05:03:50 10° N 05:11:09 87° W 05:18:32 10° S visible
